Overview Statistics Trail Chart Weather Telemetry Raw packets
 

This is the latest recevied weather packets stored in our database for station/object KB8TTR. If no packets are shown the sender has not sent any weather packets the latest 10 day(s).

<< 1 2 3 4 5 6 >>
Time Temp. Humidity Pressure Rain* Wind** Luminosity Snow
1788613234 22.78° C 99% 1015.4 hPa 0 mm - 157 W/m² -
1788612933 22.78° C 99% 1015.5 hPa 0 mm - 132 W/m² -
1788612629 22.22° C 99% 1015.4 hPa 0 mm - 101 W/m² -
1788612326 22.22° C 99% 1015.6 hPa 0 mm - 68 W/m² -
1788612021 22.22° C 99% 1015.6 hPa 0 mm - 88 W/m² -
1788611717 22.22° C 99% 1015.5 hPa 0 mm - 42 W/m² -
1788611414 22.22° C 99% 1015.4 hPa 0 mm - 38 W/m² -
1788611113 22.22° C 99% 1015.4 hPa 0 mm - 39 W/m² -
1788610824 22.22° C 99% 1015.3 hPa 0 mm - 41 W/m² -
1788610503 22.22° C 99% 1015.3 hPa 0 mm - 45 W/m² -
1788610203 22.22° C 99% 1015.2 hPa 0 mm - 41 W/m² -
1788609897 22.22° C 99% 1015.2 hPa 0 mm - 41 W/m² -
1788609592 22.22° C 99% 1015.1 hPa 0 mm - 36 W/m² -
1788609291 22.22° C 99% 1015 hPa 0 mm - 32 W/m² -
1788608986 22.22° C 99% 1014.9 hPa 0 mm - 25 W/m² -
1788608686 22.22° C 99% 1015 hPa 0 mm - 23 W/m² -
1788608384 22.22° C 99% 1014.9 hPa 0 mm - 21 W/m² -
1788608080 22.22° C 99% 1015.1 hPa 0 mm - 17 W/m² -
1788607775 22.22° C 99% 1015 hPa 0 mm - 13 W/m² -
1788607471 22.22° C 99% 1015 hPa 0 mm - 7 W/m² -
1788607166 22.22° C 99% 1015 hPa 0 mm - 5 W/m² -
1788606866 22.22° C 99% 1014.9 hPa 0 mm - 3 W/m² -
1788606560 22.22° C 99% 1014.8 hPa 0 mm - 2 W/m² -
1788606260 22.22° C 99% 1014.7 hPa 0 mm - 1 W/m² -
1788605955 21.67° C 99% 1014.9 hPa 0 mm - 1 W/m² -

* Rain latest hour (hover to see other rain measurements)
** Current wind speed in m/s (hover to see current wind gust speed)